Location: Tucson
(32.2217°N, 110.9265°W)
Time: 15:01:21
(UTC-07:00)

A-11 Canister half - Pass Details

Date: 25 October 2021
Orbit: 1516 x 1684 km, 47.2° (Epoch: 04 December)

Event Time Altitude Azimuth Distance (km) Brightness Sun altitude
Rises 19:12:18 0° 265° (W) 4,927 13.3 -20.2°
Reaches altitude 10° 19:15:47 10° 272° (W) 3,931 12.3 -20.9°
Maximum altitude 19:25:10 42° 341° (NNW) 2,226 9.9 -22.9°
Enters shadow 19:31:49 19° 41° (NE) 3,176 10.3 -24.3°
